Hastings, NE

2:32 PM CDT on July 26, 2017 (GMT -0500)
Hastings Municipal

Weather History for KHSI - February, 2014

Change the Weather History Date:

Sunday, February 23, 2014

  Actual Average Record
Temperature  
Mean Temperature 25 °F 32 °F  
Max Temperature 28 °F 42 °F 75 °F (1918)
Min Temperature 22 °F 22 °F -7 °F (1910)
Degree Days  
Heating Degree Days 40 33  
Month to date heating degree days 935 822  
Since 1 July heating degree days 4657 4471  
Cooling Degree Days 0 0  
Month to date cooling degree days 0 0  
Year to date cooling degree days 0 0  
Moisture  
Dew Point 12 °F    
Average Humidity 57    
Maximum Humidity 68    
Minimum Humidity 46    
Precipitation  
Precipitation T in 0.02 in 0.65 in (1914)
Month to date precipitation 0.29 0.38  
Year to date precipitation 0.66 0.79  
Snow  
Snow T in 0.20 in 9.00 in (1994)
Month to date snowfall 6.2 5.6  
Since 1 July snowfall 17.0 21.5  
Snow Depth -    
Sea Level Pressure  
Sea Level Pressure 30.32 in    
Wind  
Wind Speed 8 mph (NE)    
Max Wind Speed 18 mph    
Max Gust Speed 23 mph    
Visibility 8 miles    
Events Snow    
T = Trace of Precipitation, MM = Missing Value Source: NWS Daily Summary

Daily Weather History Graph

Daily Weather History Graph

Search for Another Location

Airport or City:

Trip Planner

Search our weather history database for the weather conditions in past years. The results will help you decide how hot, cold, wet, or windy it might be!

Date:

Astronomy

Feb. 23, 2014 Rise Set
Actual Time 7:16 AM CST 6:18 PM CST
Civil Twilight 6:48 AM CST 6:45 PM CST
Nautical Twilight 6:17 AM CST 7:17 PM CST
Astronomical Twilight 5:45 AM CST 7:49 PM CST
Moon 2:16 AM CST (2/23) 12:21 PM CST (2/23)
Length of Visible Light 11h 57m
Length of Day
11h 01m
Last Quarter, 38% of the Moon is Illuminated
Feb 23
Last Quarter
Mar 1
New
Mar 8
First Quarter
Mar 16
Full
Mar 23
Last Quarter

Hourly Weather History & Observations

Time (CST) Temp. Windchill Dew Point Humidity Pressure Visibility Wind Dir Wind Speed Gust Speed Precip Events Conditions
12:53 AM 28.0 °F 18.1 °F 12.9 °F 53% 30.20 in 10.0 mi NE 11.5 mph - N/A   Overcast
1:53 AM 27.0 °F 15.6 °F 12.9 °F 56% 30.21 in 10.0 mi NNE 13.8 mph - N/A   Overcast
2:53 AM 26.1 °F 12.7 °F 14.0 °F 60% 30.21 in 10.0 mi NE 18.4 mph - N/A   Overcast
3:53 AM 26.1 °F 15.0 °F 12.0 °F 55% 30.22 in 10.0 mi NE 12.7 mph - 0.00 in   Overcast
4:12 AM 24.1 °F 12.5 °F 15.1 °F 69% 30.17 in 4.0 mi NE 12.7 mph - 0.00 in Snow Light Snow
4:53 AM 24.1 °F 13.1 °F 14.0 °F 65% 30.26 in 7.0 mi NE 11.5 mph - 0.00 in Snow Light Snow
5:24 AM 24.1 °F 17.0 °F 14.0 °F 65% 30.21 in 9.0 mi ENE 5.8 mph - 0.00 in   Overcast
5:53 AM 24.1 °F 12.5 °F 8.1 °F 51% 30.29 in 10.0 mi NE 12.7 mph - 0.00 in   Overcast
6:42 AM 21.9 °F 11.0 °F 12.9 °F 68% 30.24 in 2.5 mi NE 10.4 mph - 0.00 in Snow Light Snow
6:53 AM 21.9 °F 10.4 °F 14.0 °F 72% 30.31 in 3.0 mi NNE 11.5 mph - 0.00 in Snow Light Snow
7:14 AM 21.9 °F 11.0 °F 12.0 °F 66% 30.26 in 9.0 mi NNE 10.4 mph - 0.00 in Snow Light Snow
7:53 AM 23.0 °F 13.1 °F 9.0 °F 55% 30.33 in 10.0 mi NNE 9.2 mph - 0.00 in   Overcast
8:53 AM 21.9 °F 12.5 °F 9.0 °F 58% 30.37 in 6.0 mi NNE 8.1 mph - 0.00 in Snow Light Snow
9:53 AM 24.1 °F 13.1 °F 6.1 °F 46% 30.39 in 10.0 mi NNE 11.5 mph - 0.00 in   Overcast
10:53 AM 23.0 °F 12.4 °F 10.9 °F 60% 30.39 in 10.0 mi NE 10.4 mph - N/A   Overcast
11:53 AM 24.1 °F 16.0 °F 10.9 °F 57% 30.39 in 10.0 mi NE 6.9 mph - N/A   Overcast
12:53 PM 25.0 °F 14.8 °F 10.9 °F 55% 30.38 in 10.0 mi NNE 10.4 mph - N/A   Overcast
1:53 PM 26.1 °F 17.6 °F 12.0 °F 55% 30.37 in 10.0 mi NE 8.1 mph - N/A   Overcast
2:53 PM 27.0 °F 23.0 °F 12.0 °F 53% 30.37 in 10.0 mi North 3.5 mph - N/A   Overcast
3:53 PM 28.0 °F 22.8 °F 12.9 °F 53% 30.35 in 10.0 mi ENE 4.6 mph - N/A   Overcast
4:53 PM 27.0 °F 21.6 °F 12.9 °F 56% 30.36 in 10.0 mi ENE 4.6 mph - 0.00 in   Overcast
5:53 PM 28.0 °F 22.8 °F 12.0 °F 51% 30.35 in 10.0 mi East 4.6 mph - N/A   Overcast
6:53 PM 28.0 °F 22.8 °F 10.0 °F 47% 30.36 in 10.0 mi ENE 4.6 mph - N/A   Overcast
7:53 PM 28.0 °F - 10.0 °F 47% 30.35 in 10.0 mi Calm Calm - N/A   Overcast
8:53 PM 27.0 °F 23.0 °F 15.1 °F 61% 30.38 in 10.0 mi WSW 3.5 mph - N/A   Overcast
9:53 PM 26.1 °F 21.9 °F 16.0 °F 66% 30.38 in 10.0 mi WSW 3.5 mph - N/A   Overcast
10:53 PM 25.0 °F - 16.0 °F 69% 30.38 in 10.0 mi Calm Calm - N/A   Overcast
11:31 PM 25.0 °F - 17.1 °F 72% 30.30 in 5.0 mi Calm Calm - 0.00 in Snow Light Snow
11:53 PM 24.1 °F 19.7 °F 17.1 °F 75% 30.39 in 2.0 mi NNW 3.5 mph - 0.00 in Snow Light Snow